| time (UTC) | temp F | wind direction | speed knots | gust knots | rain 1hr in | rain 24hr in | rain mn in | humidity % | barometer mb |
| 20260502194527 | 43 | 250 | 11.3 | 16.5 | 0.00 | 0.00 | 0.00 | 51 | 1016.4 |
| 20260502193024 | 43 | 250 | 13.0 | 16.5 | 0.00 | 0.00 | 0.00 | 51 | 1016.6 |
| 20260502191528 | 43 | 239 | 12.2 | 14.8 | 0.00 | 0.00 | 0.00 | 56 | 1016.8 |
| 20260502190020 | 42 | 248 | 13.0 | 15.6 | 0.00 | 0.00 | 0.00 | 56 | 1016.9 |
| 20260502184519 | 42 | 255 | 12.2 | 15.6 | 0.00 | 0.00 | 0.00 | 60 | 1017.1 |
| 20260502183020 | 42 | 250 | 12.2 | 14.8 | 0.00 | 0.00 | 0.00 | 64 | 1017.1 |
| 20260502181515 | 42 | 250 | 12.2 | 16.5 | 0.00 | 0.00 | 0.00 | 68 | 1017.2 |
| 20260502163005 | 41 | 246 | 12.2 | 16.5 | 0.00 | 0.00 | 0.00 | 70 | 1017.4 |
| 20260502161504 | 41 | 249 | 12.2 | 15.6 | 0.00 | 0.00 | 0.00 | 73 | 1017.5 |
| 20260502151612 | 40 | 254 | 11.3 | 14.8 | 0.00 | 0.00 | 0.00 | 70 | 1017.8 |
| 20260502123001 | 36 | 250 | 0.0 | 6.1 | 0.00 | 0.00 | 0.00 | 86 | 1018.4 |
| 20260502121558 | 34 | 240 | 1.7 | 5.2 | 0.00 | 0.00 | 0.00 | 89 | 1018.5 |
| 20260502114552 | 33 | 259 | 1.7 | 5.2 | 0.00 | 0.00 | 0.00 | 92 | 1018.5 |
| 20260502113053 | 32 | 239 | 2.6 | 5.2 | 0.00 | 0.00 | 0.00 | 92 | 1018.4 |
| 20260502111546 | 28 | 255 | 0.0 | 1.7 | 0.00 | 0.00 | 0.00 | 92 | 1018.4 |
| 20260502110048 | 27 | 146 | 0.0 | 0.0 | 0.00 | 0.00 | 0.00 | 92 | 1018.3 |
| 20260502104545 | 28 | 185 | 0.0 | 0.9 | 0.00 | 0.00 | 0.00 | 90 | 1018.3 |
| 20260502103043 | 30 | 255 | 1.7 | 3.5 | 0.00 | 0.00 | 0.00 | 87 | 1018.3 |
| 20260502101559 | 25 | 247 | 0.0 | 2.6 | 0.00 | 0.00 | 0.00 | 92 | 1018.3 |
| 20260502071532 | 26 | 109 | 0.0 | 0.0 | 0.00 | 0.00 | 0.00 | 91 | 1017.9 |
| 20260502070052 | 27 | 109 | 0.0 | 0.0 | 0.00 | 0.00 | 0.00 | 91 | 1018.0 |
| 20260502064529 | 27 | 109 | 0.0 | 0.0 | 0.00 | 0.00 | 0.00 | 91 | 1018.1 |
| 20260502063032 | 27 | 110 | 0.0 | 0.0 | 0.00 | 0.00 | 0.00 | 91 | 1018.0 |
| 20260502061527 | 28 | 113 | 0.0 | 0.0 | 0.00 | 0.00 | 0.00 | 90 | 1018.1 |
| 20260502060036 | 27 | 113 | 0.0 | 0.0 | 0.00 | 0.00 | 0.00 | 91 | 1018.1 |
| 20260502054539 | 27 | 110 | 0.0 | 0.0 | 0.00 | 0.00 | 0.00 | 91 | 1018.2 |
| 20260502053024 | 28 | 110 | 0.0 | 0.0 | 0.00 | 0.00 | 0.00 | 90 | 1018.0 |
| 20260502051522 | 28 | 110 | 0.0 | 0.0 | 0.00 | 0.00 | 0.00 | 90 | 1018.1 |
| 20260502050023 | 29 | 110 | 0.0 | 0.0 | 0.00 | 0.00 | 0.00 | 90 | 1018.0 |
| 20260502044518 | 29 | 110 | 0.0 | 0.0 | 0.00 | 0.00 | 0.00 | 90 | 1017.9 |
| 20260502043017 | 29 | 110 | 0.0 | 0.0 | 0.00 | 0.00 | 0.00 | 89 | 1017.9 |
| 20260502041527 | 29 | 110 | 0.0 | 0.0 | 0.00 | 0.00 | 0.00 | 88 | 1017.9 |
| 20260502040021 | 31 | 110 | 0.0 | 0.0 | 0.00 | 0.00 | 0.00 | 87 | 1018.1 |
| 20260502034509 | 32 | 155 | 0.0 | 0.0 | 0.00 | 0.00 | 0.00 | 86 | 1018.0 |
| 20260502033011 | 33 | 213 | 0.0 | 0.0 | 0.00 | 0.00 | 0.00 | 84 | 1018.1 |
| 20260502031507 | 34 | 213 | 0.0 | 0.0 | 0.00 | 0.00 | 0.00 | 84 | 1018.0 |
| 20260502030007 | 35 | 201 | 0.0 | 0.0 | 0.00 | 0.00 | 0.00 | 83 | 1018.1 |
| 20260502024506 | 35 | 218 | 0.0 | 0.9 | 0.00 | 0.00 | 0.00 | 82 | 1018.1 |
| 20260502023017 | 36 | 214 | 0.0 | 0.0 | 0.00 | 0.00 | 0.00 | 82 | 1018.1 |
| 20260502021506 | 36 | 240 | 0.0 | 0.9 | 0.00 | 0.00 | 0.00 | 81 | 1018.2 |
| 20260502020004 | 37 | 245 | 0.0 | 1.7 | 0.00 | 0.00 | 0.00 | 80 | 1018.2 |
| 20260502014502 | 37 | 250 | 0.9 | 2.6 | 0.00 | 0.00 | 0.00 | 79 | 1018.0 |
| 20260502013002 | 38 | 241 | 0.0 | 3.5 | 0.00 | 0.00 | 0.00 | 80 | 1018.0 |
| 20260502011613 | 38 | 245 | 1.7 | 5.2 | 0.00 | 0.00 | 0.00 | 78 | 1017.8 |
| 20260502010100 | 38 | 255 | 3.5 | 7.0 | 0.00 | 0.00 | 0.00 | 80 | 1017.7 |
| 20260502004557 | 38 | 257 | 3.5 | 7.0 | 0.00 | 0.00 | 0.00 | 84 | 1017.6 |
| 20260502003056 | 38 | 268 | 4.3 | 9.6 | 0.00 | 0.00 | 0.00 | 82 | 1017.6 |
| 20260502001601 | 38 | 259 | 6.1 | 9.6 | 0.00 | 0.00 | 0.00 | 82 | 1017.4 |
| 20260502000106 | 38 | 254 | 7.0 | 8.7 | 0.00 | 0.00 | 0.00 | 82 | 1017.3 |
| 20260501234551 | 38 | 244 | 7.0 | 11.3 | 0.00 | 0.00 | 0.00 | 82 | 1017.2 |
| 20260501233104 | 39 | 253 | 7.0 | 11.3 | 0.00 | 0.00 | 0.00 | 83 | 1017.2 |
| 20260501231607 | 39 | 254 | 7.8 | 10.4 | 0.00 | 0.00 | 0.00 | 79 | 1017.1 |
| 20260501230114 | 39 | 251 | 9.6 | 12.2 | 0.00 | 0.00 | 0.00 | 80 | 1017.0 |
| 20260501224556 | 40 | 241 | 7.0 | 12.2 | 0.00 | 0.00 | 0.00 | 77 | 1017.0 |
| 20260501223053 | 40 | 249 | 10.4 | 13.0 | 0.00 | 0.00 | 0.00 | 79 | 1017.0 |
| 20260501221549 | 40 | 257 | 8.7 | 12.2 | 0.00 | 0.00 | 0.00 | 72 | 1016.9 |
| 20260501220044 | 40 | 238 | 5.2 | 10.4 | 0.00 | 0.00 | 0.00 | 71 | 1016.7 |
| 20260501214642 | 41 | 264 | 2.6 | 8.7 | 0.00 | 0.00 | 0.00 | 73 | 1016.5 |
| 20260501213041 | 41 | 249 | 0.9 | 11.3 | 0.00 | 0.00 | 0.00 | 71 | 1016.5 |
| 20260501211540 | 41 | 240 | 5.2 | 11.3 | 0.00 | 0.00 | 0.00 | 67 | 1016.3 |
| 20260501210040 | 43 | 228 | 0.0 | 7.0 | 0.00 | 0.00 | 0.00 | 59 | 1016.3 |
| 20260501204543 | 41 | 242 | 7.8 | 12.2 | 0.00 | 0.00 | 0.00 | 78 | 1016.0 |
| 20260501203039 | 42 | 252 | 0.9 | 14.8 | 0.00 | 0.00 | 0.00 | 72 | 1016.0 |
| 20260501201541 | 43 | 226 | 0.9 | 4.3 | 0.00 | 0.00 | 0.00 | 55 | 1016.1 |
| 20260501200038 | 43 | 244 | 3.5 | 7.0 | 0.00 | 0.00 | 0.00 | 66 | 1016.0 |